Regional Weather Roundup
Issued by NWS

Home | Current Version | Previous Version | Graphics & Text | Print | Product List | Glossary Off
Versions: 1 2 3 4 5 6 7 8 9 10 11 12 13 14 15 16 17 18 19 20 21 22 23 24 25 26 27 28 29 30 31 32 33 34 35 36 37 38 39 40 41 42 43 44 45 46 47 48 49 50

451
ASUS44 KJAN 020410
RWRMS

MISSISSIPPI HOURLY WEATHER ROUNDUP
NATIONAL WEATHER SERVICE JACKSON MS
1100 PM CDT FRI AUG 01 2014

NOTE: "FAIR: INDICATES FEW OR NO CLOUDS BELOW 12,000 FEET WITH NO
SIGNIFICANT WEATHER AND/OR OBSTRUCTIONS TO VISIBILITY.

MSZ001>002-007>008-010>013-018>021-025>028-034>036-020500-
NORTHWEST MISSISSIPPI

CITY           SKY/WX    TMP DP  RH WIND       PRES   REMARKS
CLARKSDALE     FAIR      72  72 100 CALM      30.03R
CLEVELAND      CLOUDY    72  71  98 N5        30.01S
GREENWOOD      CLOUDY    71  69  93 CALM      30.01R FOG
GREENVILLE     CLOUDY    75  70  84 CALM      30.01S
GRENADA        FAIR      70  68  94 CALM      30.02S
OLIVE BRANCH   CLEAR     75  70  83 NE3       30.04R
OXFORD         FAIR      70  68  94 CALM      30.04S
TUNICA         PTCLDY    72  68  88 CALM      30.03S
$$

MSZ003>006-009-014>017-022>024-029>033-037>039-020500-
NORTHEAST MISSISSIPPI

CITY           SKY/WX    TMP DP  RH WIND       PRES   REMARKS
BELMONT        FAIR      70  67  91 CALM      30.04S
COLUMBUS AFB   PTCLDY    72  72 100 CALM      30.01S
CORINTH          N/A     70  66  88 CALM      30.04S FOG
GOLDN TRIANGLE PTCLDY    73  66  78 NW3       30.02R
STARKVILLE     FAIR      70  68  94 CALM      30.01S
TUPELO         PTCLDY    74  68  81 NE5       30.02S
$$

MSZ040-058-020500-
CENTRAL MISSISSIPPI

CITY           SKY/WX    TMP DP  RH WIND       PRES   REMARKS
JACKSON INTL   CLOUDY    73  71  93 CALM      30.01R
JACKSON HAWKNS CLOUDY    73  66  78 CALM      30.02R
MERIDIAN KEY   CLOUDY    73  69  87 CALM      30.01S
MERIDIAN NAS   CLOUDY    74  68  81 CALM      30.01S
RAYMOND        CLOUDY    70  64  83 CALM      30.01R
VICKSBURG      CLOUDY    72  69  90 NE5       30.00S
$$

MSZ059>079-020500-
SOUTH MISSISSIPPI

CITY           SKY/WX    TMP DP  RH WIND       PRES   REMARKS
BROOKHAVEN     MOCLDY    73  72  94 CALM      30.02R FOG
COLUMBIA       CLOUDY    73  72  94 CALM      29.99R
HATTIESBURG    CLOUDY    74  71  91 CALM      30.01R
MCCOMB         MOCLDY    73  71  93 CALM      30.00R FOG
NATCHEZ        CLOUDY    72  70  94 E8        30.00R
PINE BELT      MOCLDY    72  68  88 CALM      30.02R
$$

MSZ080>082-020500-
COASTAL MISSISSIPPI

CITY           SKY/WX    TMP DP  RH WIND       PRES   REMARKS
BILOXI         CLEAR     76  69  79 E5        29.99S
PASCAGOULA     PTCLDY    70  69  97 CALM      30.00R
GULFPORT       CLEAR     77  70  79 CALM      29.99R
$$



USA.gov is the U.S. government's official web portal to all federal, state and local government web resources and services.